User: anonymous   Login
Location: Unspecified
(0.0000°N, 0.0000°E)
Time: 03:32:06
(UTC+00:00)
Language:

AAUSAT 4 - Orbit

View from above orbital plane
View from above orbital plane
View from above satellite
View from above satellite

Ground track
Ground track

The orbit data is extracted from the following two-line orbital elements,

1 41460U 16025E   17112.90110976 +.00006782 +00000-0 +36499-3 0  9991
2 41460 098.1852 147.3392 0170078 113.1880 248.7369 15.03551515054283
Epoch (UTC): 22 April 2017 21:37:35
Eccentricity: 0.0170078
inclination: 98.1852°
perigee height: 438 km
apogee height: 674 km
right ascension of ascending node: 147.3392°
argument of perigee: 113.1880°
revolutions per day: 15.03551515
mean anomaly at epoch: 248.7369°
orbit number at epoch: 5428

The dashed part of the orbit path shows where the satellite is in the earth's shadow,  

DLR